Location: Newark
(22.3145°N, 88.6625°E)
Time: 11:23:55
(UTC+00:00)

Envisat - Pass Details

Date: 29 September 2019
Orbit: 764 x 766 km, 98.1° (Epoch: 20 October)

Event Time Altitude Azimuth Distance (km) Brightness Sun altitude
Rises 13:42:24 0° 212° (SSW) 3,219 6.5 -25.5°
Reaches altitude 10° 13:46:21 10° 243° (WSW) 2,296 6.1 -26.4°
Maximum altitude 13:48:08 12° 264° (W) 2,173 6.2 -26.8°
Drops below altitude 10° 13:49:56 10° 285° (WNW) 2,299 6.4 -27.3°
Sets 13:53:55 0° 317° (NW) 3,228 7.0 -28.2°
